Weather in Tamale

Ghana     9°23′58″N   0°50′23″E
temp.,
°C
wind,
m/s
gust,
m/s
humid.,
%
clouds,
%
prec.,
mm/h
press.,
hPa
HPBL,
m
10 august, wed
wed1000:00+25s368090 0.0 1012170
03:00+24s2781100 0.0 1012310
06:00+24s3681100 0.0 1013374
09:00+25ssw4679100 0.0 1014557
12:00+27ssw456959 0.0 1013969
15:00+30sw345620 0.0 10101389
18:00+28sse226584 0.0 100927
21:00+27s2565100 0.0 1012138
11 august, thu
thu1100:00+26ssw2369100 0.0 1012104
03:00+24s3683100 0.9 1012163
06:00+23ssw399081 1.3 1013343
09:00+26sw467675 0.0 1015661
12:00+30wsw445952 0.3 10131369
15:00+32sw345283 0.0 10091762
18:00+28ssw226793 0.1 101043
21:00+28ssw2265100 0.0 101228
12 august, fri
fri1200:00+26ssw3770100 0.1 1012214
03:00+25ssw3879100 0.7 1011233
06:00+24ssw2782100 0.9 1012260
09:00+26sw5871100 0.0 1013702
12:00+27sw4667100 0.0 10131125
15:00+28wsw3566100 0.0 10111048
18:00+26wnw2375100 0.0 101180
21:00+24wnw2283100 0.0 101249
13 august, sat
sat1300:00+24wsw3784100 0.0 1013319
03:00+24sw258698 0.0 1012211
06:00+23ssw388728 0.0 1013363
09:00+26wsw577165 0.0 1015976
12:00+28wsw566475 0.3 10141279
15:00+30sw566039 0.2 10111380
18:00+26ssw367593 0.7 1012185
21:00+24sw3786100 1.6 1014195
14 august, sun
sun1400:00+23wsw379084 1.8 1014218
03:00+23wsw499164 0.0 1012360
06:00+23wsw4109128 0.2 1013459
09:00+26w687349 0.0 1014964
12:00+28w576492 0.1 10121376
15:00+30w3559100 0.1 10091417
18:00+27wsw2273100 0.1 100938
21:00+26sw3875100 0.0 1011240